EC5ZZ-13 Weather Reports


time (UTC)temp
C
wind
direction
speed
KPH
gust
KPH
rain 1hr
cm
rain 24hr
cm
rain mn
cm
humidity
%
barometer
mb
20260506234040 13 327 3.2 4.8 0.00 0.00 0.00 73 1012.1
20260506233024 13 334 3.2 6.4 0.00 0.00 0.00 73 1012.3
20260506232112 13 312 4.8 6.4 0.00 0.00 0.00 74 1012.3
20260506231057 13 344 3.2 6.4 0.00 0.00 0.00 74 1012.2
20260506230044 13 306 3.2 4.8 0.00 0.00 0.00 74 1012.2
20260506225028 13 320 1.6 3.2 0.00 0.00 0.00 74 1012.2
20260506224127 13 315 3.2 4.8 0.00 0.00 0.00 74 1012.3
20260506223053 14 312 3.2 4.8 0.00 0.00 0.00 74 1012.3
20260506222039 14 338 1.6 6.4 0.00 0.00 0.00 74 1012.4
20260506221027 15 345 1.6 4.8 0.00 0.00 0.00 73 1012.4
20260506220114 15 335 1.6 3.2 0.00 0.00 0.00 73 1012.4
20260506215122 15 319 1.6 4.8 0.00 0.00 0.00 72 1012.4
20260506214049 15 333 1.6 3.2 0.00 0.00 0.00 72 1012.4
20260506213036 15 315 0.0 3.2 0.00 0.00 0.00 71 1012.4
20260506212113 16 0.0 1.6 0.00 0.00 0.00 70 1012.3
20260506211103 16 0.0 1.6 0.00 0.00 0.00 70 1012.3
20260506210029 16 68 0.0 3.2 0.00 0.00 0.00 70 1012.2
20260506205113 16 60 0.0 3.2 0.00 0.00 0.00 70 1011.9
20260506204047 16 90 0.0 3.2 0.00 0.00 0.00 70 1011.8
20260506203033 16 45 0.0 3.2 0.00 0.00 0.00 70 1011.7
20260506202138 16 23 0.0 3.2 0.00 0.00 0.00 69 1011.7
20260506201059 16 326 0.0 3.2 0.00 0.00 0.00 69 1011.6
20260506200042 16 315 0.0 3.2 0.00 0.00 0.00 68 1011.5
20260506195028 17 255 0.0 3.2 0.00 0.00 0.00 68 1011.3
20260506194113 17 344 0.0 3.2 0.00 0.00 0.00 67 1011.2
20260506193059 17 0 0.0 3.2 0.00 0.00 0.00 67 1011.1
20260506192047 17 26 1.6 3.2 0.00 0.00 0.00 65 1011.0
20260506191054 17 328 1.6 6.4 0.00 0.00 0.00 61 1010.9
20260506190019 18 330 1.6 3.2 0.00 0.00 0.00 60 1010.9
20260506185107 18 356 3.2 6.4 0.00 0.00 0.00 56 1010.7
20260506184054 20 335 3.2 4.8 0.00 0.00 0.00 54 1010.6
20260506183040 20 333 1.6 4.8 0.00 0.00 0.00 53 1010.6
20260506182048 19 339 3.2 6.4 0.00 0.00 0.00 54 1010.5
20260506181114 20 297 1.6 4.8 0.00 0.00 0.00 53 1010.4
20260506180100 21 270 4.8 12.9 0.00 0.00 0.00 52 1010.2
20260506175127 20 287 1.6 6.4 0.00 0.00 0.00 53 1010.3
20260506174030 20 355 3.2 8.0 0.00 0.00 0.00 52 1010.2
20260506173117 20 287 3.2 8.0 0.00 0.00 0.00 52 1010.1
20260506172105 20 226 3.2 9.7 0.00 0.00 0.00 52 1010.2
20260506171053 20 326 3.2 6.4 0.00 0.00 0.00 51 1010.3
20260506170039 21 306 4.8 6.4 0.00 0.00 0.00 50 1010.4
20260506165023 21 349 4.8 9.7 0.00 0.00 0.00 50 1010.5
20260506164123 21 341 4.8 8.0 0.00 0.00 0.00 51 1010.5
20260506163108 20 38 3.2 6.4 0.00 0.00 0.00 50 1010.4
20260506162034 21 278 4.8 12.9 0.00 0.00 0.00 47 1010.5
20260506161041 22 224 4.8 12.9 0.00 0.00 0.00 47 1010.3
20260506160109 22 331 6.4 12.9 0.00 0.00 0.00 46 1010.2
20260506155056 22 149 4.8 9.7 0.00 0.00 0.00 43 1010.3
20260506154042 22 59 6.4 9.7 0.00 0.00 0.00 43 1010.3
20260506153030 22 266 4.8 11.3 0.00 0.00 0.00 44 1010.2
20260506152137 22 345 6.4 12.9 0.00 0.00 0.00 49 1010.2
20260506151105 21 345 4.8 14.5 0.00 0.00 0.00 53 1010.2
20260506150051 20 356 4.8 8.0 0.00 0.00 0.00 53 1010.3
20260506145038 20 61 4.8 11.3 0.00 0.00 0.00 53 1010.6
20260506144023 21 275 6.4 12.9 0.00 0.00 0.00 53 1010.6
20260506143110 21 322 4.8 11.3 0.00 0.00 0.00 53 1010.5
20260506142053 21 279 4.8 11.3 0.00 0.00 0.00 53 1010.6
20260506141100 21 301 6.4 11.3 0.00 0.00 0.00 52 1010.8
20260506140024 21 252 6.4 12.9 0.00 0.00 0.00 53 1010.7
20260506135108 21 199 6.4 9.7 0.00 0.00 0.00 53 1010.8
20260506134054 21 350 6.4 12.9 0.00 0.00 0.00 52 1010.7
20260506133040 22 338 8.0 14.5 0.00 0.00 0.00 47 1010.7
20260506132050 21 324 4.8 6.4 0.00 0.00 0.00 50 1010.7
20260506131134 22 315 8.0 17.7 0.00 0.00 0.00 48 1010.7
20260506125050 23 292 6.4 9.7 0.00 0.00 0.00 42 1010.9
20260506124035 23 259 8.0 17.7 0.00 0.00 0.00 42 1010.8
20260506123119 23 250 8.0 20.9 0.00 0.00 0.00 43 1010.8
20260506122058 23 221 6.4 12.9 0.00 0.00 0.00 42 1010.8
20260506121040 23 215 9.7 17.7 0.00 0.00 0.00 42 1011.0
20260506120121 23 239 8.0 17.7 0.00 0.00 0.00 42 1011.0
20260506115104 23 236 11.3 24.1 0.00 0.00 0.00 42 1010.9
20260506114049 24 239 6.4 12.9 0.00 0.00 0.00 40 1011.0
20260506113035 23 215 8.0 12.9 0.00 0.00 0.00 40 1011.0
20260506112021 24 222 6.4 11.3 0.00 0.00 0.00 39 1011.0
20260506111107 24 172 8.0 14.5 0.00 0.00 0.00 39 1011.1
20260506110054 24 252 8.0 17.7 0.00 0.00 0.00 39 1011.0
20260506105101 24 225 8.0 14.5 0.00 0.00 0.00 38 1011.2
20260506104026 25 228 6.4 12.9 0.00 0.00 0.00 36 1011.2
20260506103136 23 254 3.2 8.0 0.00 0.00 0.00 38 1011.2
20260506102102 24 217 4.8 8.0 0.00 0.00 0.00 39 1011.3
20260506101108 22 230 1.6 4.8 0.00 0.00 0.00 41 1011.4
20260506100035 22 252 1.6 6.4 0.00 0.00 0.00 45 1011.6
20260506095021 22 213 6.4 9.7 0.00 0.00 0.00 41 1011.5
20260506094143 22 249 1.6 4.8 0.00 0.00 0.00 41 1011.5
20260506093046 23 275 3.2 6.4 0.00 0.00 0.00 40 1011.4
20260506092127 22 243 6.4 9.7 0.00 0.00 0.00 40 1011.3
20260506091115 25 287 3.2 6.4 0.00 0.00 0.00 40 1011.3
20260506085047 25 11 3.2 6.4 0.00 0.00 0.00 40 1011.4
20260506084034 23 214 4.8 9.7 0.00 0.00 0.00 40 1011.5
20260506083039 22 237 3.2 6.4 0.00 0.00 0.00 42 1011.4
20260506082107 22 195 4.8 6.4 0.00 0.00 0.00 41 1011.5
20260506081051 23 311 3.2 6.4 0.00 0.00 0.00 42 1011.4
20260506073053 20 330 3.2 6.4 0.00 0.00 0.00 54 1011.4
20260506072040 18 327 1.6 4.8 0.00 0.00 0.00 59 1011.4
20260506071026 17 308 3.2 6.4 0.00 0.00 0.00 60 1011.4
20260506070113 17 330 3.2 6.4 0.00 0.00 0.00 66 1011.4
20260506062116 12 321 4.8 6.4 0.00 0.00 0.00 79 1011.2
20260506061103 12 347 4.8 6.4 0.00 0.00 0.00 79 1011.2
20260506051121 11 262 1.6 3.2 0.00 0.00 0.00 83 1011.0
20260506045113 11 302 3.2 4.8 0.00 0.00 0.00 83 1010.9
20260506044103 11 321 3.2 6.4 0.00 0.00 0.00 84 1010.9
20260506043048 12 306 3.2 6.4 0.00 0.00 0.00 84 1010.9
20260506042035 12 315 3.2 4.8 0.00 0.00 0.00 84 1010.8
20260506041139 12 307 3.2 6.4 0.00 0.00 0.00 84 1010.7
20260506040105 12 290 1.6 6.4 0.00 0.00 0.00 83 1010.8
20260506035052 12 332 3.2 6.4 0.00 0.00 0.00 82 1010.7
20260506034039 12 323 3.2 6.4 0.00 0.00 0.00 80 1010.7
20260506033026 12 322 3.2 6.4 0.00 0.00 0.00 81 1010.9
20260506032115 12 303 3.2 4.8 0.00 0.00 0.00 81 1011.0
20260506031059 12 343 3.2 6.4 0.00 0.00 0.00 82 1011.0
20260506030045 12 315 3.2 4.8 0.00 0.00 0.00 82 1011.0
20260506025033 12 315 3.2 6.4 0.00 0.00 0.00 86 1011.0
20260506024157 12 305 3.2 6.4 0.00 0.00 0.00 86 1010.8
20260506023134 12 347 3.2 6.4 0.00 0.00 0.00 86 1010.8
20260506022036 12 340 4.8 6.4 0.00 0.00 0.00 86 1010.8
20260506021020 12 327 3.2 4.8 0.00 0.00 0.00 85 1010.7
20260506020127 12 320 4.8 6.4 0.00 0.00 0.00 85 1010.7
20260506015053 12 29 4.8 6.4 0.00 0.00 0.00 84 1010.8
20260506014037 12 342 4.8 6.4 0.00 0.00 0.00 81 1010.8
20260506013024 12 344 4.8 6.4 0.00 0.00 0.00 81 1011.0
20260506012131 13 335 6.4 9.7 0.00 0.00 0.00 81 1011.0
20260506011100 13 346 3.2 6.4 0.00 0.00 0.00 80 1011.0
20260506010045 13 348 1.6 3.2 0.00 0.00 0.00 79 1011.1
20260506005032 13 2 3.2 4.8 0.00 0.00 0.00 78 1011.2
20260506004118 13 310 1.6 4.8 0.00 0.00 0.00 76 1011.4
20260506003126 13 337 1.6 3.2 0.00 0.00 0.00 76 1011.4
20260506002056 13 346 3.2 4.8 0.00 0.00 0.00 75 1011.4
20260506001045 14 330 3.2 6.4 0.00 0.00 0.00 73 1011.5
20260506000035 14 343 3.2 6.4 0.00 0.00 0.00 72 1011.5
20260505235026 15 330 1.6 4.8 0.00 0.00 0.00 70 1011.5